Temperature
9 9 9 9 8 8 8 8 8 7 7 7 7 8 7 7 7 7 7 7 7 7 7 7 7 7 7 7 7 7 6 6 6 6 6 6 6 6
8 8 8 8 8 8 8 8 8 7 7 7 7 7 7 7 7 7 7 7 6 6 6 6 6 6 6 6 6 6 6 6 6 6 6 6 6 5
7 7 7 7 7 7 7 7 7 7 7 6 6 6 6 6 6 6 6 6 6 6 6 6 6 6 6 5 5 5 5 5 5 5 5 5 5 5
7 7 7 7 7 7 7 6 6 6 6 6 6 6 6 6 6 6 5 5 5 6 5 5 5 5 5 5 5 5 5 5 5 5 5 5 4 4
6 6 6 6 6 6 6 6 6 5 5 5 5 5 5 5 5 5 5 5 5 5 5 5 5 4 4 4 4 4 4 4 4 4 4 4 4 4
6 6 6 6 6 6 5 5 5 5 5 4 4 4 4 4 4 4 4 4 4 4 4 4 4 4 4 4 3 4 4 3 3 3 3 3 3 3
5 5 5 5 5 5 5 4 4 4 4 4 4 3 3 3 3 3 3 3 3 3 3 3 3 4 3 3 3 3 3 3 3 3 3 3 3 3
4 4 4 4 4 4 4 4 3 3 3 3 3 3 3 3 3 2 2 2 2 2 2 3 3 3 3 3 3 3 2 2 2 2 2 2 2 2
4 3 3 3 3 3 3 3 3 3 3 3 2 2 2 2 2 2 2 2 2 2 2 2 2 2 2 2 2 2 2 2 2 2 2 2 2 2
3 3 3 3 2 2 2 2 2 2 2 2 2 2 2 1 1 1 1 1 1 1 1 1 1 1 2 2 2 2 1 1 1 1 1 1 1 1
2 2 2 2 2 1 1 2 2 2 1 1 1 1 1 1 1 1 1 0 0 1 1 0 0 0 1 1 1 1 1 1 1 1 1 1 0 0
1 1 1 1 1 1 1 1 1 1 1 1 1 1 1 0 0 0 0 -0 -0 -1 -0 -0 -0 -1 -1 0 0 0 0 0 0 0 0 0 0 -0
1 1 1 1 0 0 0 0 0 0 0 0 0 0 0 -0 -0 -0 -0 -1 -1 -1 -1 -1 -1 -1 -2 -1 -0 -0 -0 -0 -0 0 -0 -0 -0 -1
-0 -0 -0 -0 -0 -0 -0 -0 -0 -0 -0 -0 -0 -0 -0 -0 -0 -1 -1 -1 -1 -1 -1 -2 -2 -2 -2 -2 -2 -1 -1 -1 -1 -1 -1 -1 -1 -1
-1 -1 -1 -1 -1 -1 -1 -1 -1 -1 -1 -1 -1 -1 -1 -1 -1 -1 -1 -1 -1 -2 -2 -2 -2 -2 -2 -2 -2 -2 -1 -1 -1 -1 -1 -1 -1 -1
-1 -1 -1 -1 -1 -1 -1 -1 -1 -1 -2 -2 -2 -2 -2 -2 -2 -2 -2 -2 -2 -2 -2 -2 -3 -3 -3 -3 -3 -2 -2 -2 -2 -2 -2 -2 -2 -2
-2 -2 -2 -2 -2 -2 -2 -2 -2 -2 -2 -2 -2 -2 -2 -2 -2 -2 -3 -3 -3 -3 -3 -3 -3 -3 -3 -3 -3 -3 -3 -3 -2 -3 -3 -2 -2 -2
-2 -2 -2 -2 -2 -2 -2 -2 -2 -3 -3 -3 -3 -3 -3 -3 -3 -3 -3 -3 -3 -3 -3 -3 -3 -3 -3 -3 -3 -3 -3 -3 -3 -3 -3 -3 -2 -2
-3 -3 -3 -3 -3 -3 -3 -3 -3 -3 -3 -3 -4 -4 -4 -4 -4 -4 -4 -4 -4 -4 -4 -4 -4 -4 -5 -5 -4 -3 -4 -4 -4 -3 -3 -3 -3 -3
-3 -3 -3 -4 -4 -4 -4 -4 -4 -4 -4 -4 -4 -4 -4 -4 -4 -4 -4 -4 -5 -4 -4 -4 -4 -5 -5 -5 -5 -4 -4 -4 -4 -4 -4 -4 -4 -3
-4 -4 -4 -4 -4 -4 -4 -4 -4 -4 -4 -4 -4 -4 -4 -5 -5 -5 -5 -5 -5 -5 -5 -5 -5 -5 -5 -5 -5 -4 -4 -4 -4 -5 -5 -5 -4 -4
-4 -4 -4 -5 -5 -5 -4 -4 -4 -4 -4 -5 -5 -5 -5 -5 -5 -5 -5 -5 -5 -5 -5 -5 -5 -5 -5 -6 -6 -5 -4 -4 -4 -4 -5 -5 -5 -5
-5 -5 -5 -5 -5 -5 -5 -5 -5 -5 -5 -5 -5 -5 -5 -6 -6 -6 -6 -6 -6 -6 -6 -6 -6 -6 -6 -6 -6 -6 -5 -5 -5 -5 -4 -4 -5 -5
Wind_Speed
3 2 2 2 2 2 3 4 4 3 3 2 1 1 2 3 3 3 4 4 5 5 5 5 6 6 6 6 6 7 8 8 8 9 9 10 10 10
2 3 2 1 1 1 2 2 3 4 3 3 2 2 2 3 4 3 4 5 5 5 6 6 6 6 7 7 8 8 8 9 9 10 10 11 11 11
1 2 2 1 1 1 1 2 2 2 4 2 1 1 2 2 3 4 4 4 5 6 7 7 8 8 7 8 8 8 9 9 10 10 11 11 12 11
2 2 1 1 1 1 2 2 2 2 3 4 2 2 2 3 2 2 3 4 5 7 7 8 8 9 8 8 9 9 10 10 10 11 11 12 12 12
2 2 1 2 2 1 2 2 2 2 2 3 2 1 1 1 1 2 3 3 5 7 7 8 9 9 10 9 10 10 10 10 11 11 12 11 12 12
1 1 1 2 3 3 2 3 3 2 2 2 2 1 1 1 1 2 3 3 4 6 7 8 9 9 10 10 10 10 10 11 11 11 12 12 12 12
1 1 1 1 2 2 2 2 3 3 2 2 2 1 2 1 2 2 3 3 4 3 3 4 6 6 8 10 11 11 11 11 12 12 12 12 12 12
1 0 0 0 0 0 1 2 3 3 3 3 3 3 4 3 2 3 3 4 4 2 2 5 3 5 6 8 11 12 12 12 12 13 13 13 12 12
2 1 1 1 0 0 0 1 2 4 5 4 4 5 5 5 4 4 4 5 6 4 3 6 4 6 7 10 12 13 12 12 13 13 13 13 12 12
2 2 2 2 2 1 1 1 2 3 3 3 5 5 5 4 5 5 5 4 4 3 2 5 4 5 6 9 12 12 13 13 13 13 13 13 13 12
2 2 2 2 3 3 1 2 2 3 4 4 5 6 6 6 4 2 2 3 5 4 2 3 3 5 5 5 9 11 12 13 14 14 13 13 12 11
1 2 3 3 4 3 2 2 3 4 2 2 3 5 4 4 5 4 4 4 4 4 3 3 3 3 4 4 4 7 9 12 14 14 13 13 12 8
2 2 3 4 4 4 4 3 5 4 2 2 2 3 2 2 3 4 4 4 5 5 3 2 3 3 4 5 5 5 6 7 8 10 13 13 13 9
3 3 3 5 5 5 4 5 5 4 2 2 2 3 3 3 3 3 5 6 7 8 7 5 4 4 5 7 7 4 4 6 6 7 8 11 11 12
3 4 5 5 4 3 4 5 4 2 2 2 3 3 3 3 3 3 4 5 6 7 8 8 6 5 5 7 7 6 6 5 5 5 5 6 6 6
2 3 4 3 3 3 3 3 2 3 3 3 3 3 2 2 3 3 3 3 4 5 5 7 8 6 6 7 8 8 7 5 5 6 6 6 7 7
2 1 1 1 2 2 2 2 2 2 3 2 2 3 3 3 3 3 3 3 4 5 6 4 5 6 7 7 8 8 8 7 6 6 5 7 7 7
2 2 3 3 4 4 3 3 3 3 3 3 3 3 4 4 4 3 3 4 5 6 6 5 5 5 4 5 8 8 7 6 6 6 5 7 8 6
3 3 4 4 4 4 3 4 4 3 3 3 4 4 4 4 4 4 4 4 5 6 6 5 4 4 7 8 5 7 6 6 5 6 6 6 8 7
3 4 4 4 4 4 4 4 4 4 3 3 4 4 4 4 4 5 5 5 6 6 6 5 5 5 7 8 7 6 8 7 6 7 6 5 6 8
3 4 4 4 4 4 4 4 5 4 4 4 4 4 4 4 5 5 5 7 7 6 7 7 6 8 6 4 6 6 5 7 8 6 5 5 6 5
3 4 4 4 4 4 4 5 5 5 5 5 5 5 5 5 6 6 6 6 6 6 7 7 6 5 4 6 8 8 7 6 7 9 10 9 5 5
4 4 4 4 4 4 4 5 5 5 5 5 5 5 5 5 5 6 6 6 6 7 7 7 5 5 5 6 7 7 7 7 5 5 6 8 10 12
Wind_Direction
146 150 172 190 175 171 162 165 169 200 242 243 243 258 280 273 281 294 305 307 311 309 308 311 310 308 299 294 295 293 292 290 292 295 295 297 297 299
143 141 144 163 171 172 177 182 178 188 224 226 232 254 274 281 283 290 293 305 305 303 302 299 297 296 295 295 294 292 291 291 291 292 292 293 295 295
130 152 165 155 145 153 171 182 180 177 219 253 248 249 240 255 300 301 297 301 300 299 299 295 290 289 288 288 289 289 288 288 289 290 292 293 293 291
154 152 173 161 151 165 175 190 192 189 201 227 246 246 250 242 262 283 301 297 295 294 292 293 288 287 287 289 289 287 285 284 284 287 289 292 293 292
164 167 197 175 184 192 189 201 198 193 197 205 239 246 261 248 266 287 289 291 294 295 291 292 290 287 284 284 287 288 286 284 282 284 287 290 292 291
142 160 190 199 207 205 203 203 187 176 174 186 239 260 268 269 242 266 289 285 290 296 290 293 295 292 286 286 287 286 285 284 283 284 286 287 288 288
105 116 181 204 210 213 208 202 191 188 186 193 230 254 263 259 257 256 278 289 284 274 283 292 295 293 291 290 287 284 282 281 283 285 285 285 286 286
154 201 293 245 183 238 220 219 216 209 211 213 226 237 247 249 253 263 276 293 285 272 279 289 286 280 285 285 285 284 281 280 282 284 284 282 282 282
182 197 248 278 336 197 283 289 250 245 234 224 228 235 237 233 231 251 256 262 269 272 283 283 281 279 285 286 286 280 279 280 281 282 281 279 277 275
189 197 208 233 237 219 217 256 266 260 253 234 230 239 241 236 230 241 249 269 276 265 247 273 280 281 289 285 281 277 276 278 280 281 281 278 275 275
214 209 207 222 251 248 221 246 280 288 301 283 277 275 271 268 266 255 256 274 285 278 245 250 272 291 288 277 275 274 275 279 282 282 281 279 276 276
239 241 236 237 249 246 225 221 255 272 278 303 308 298 291 275 265 248 230 253 280 278 237 234 271 302 292 266 265 273 277 281 281 280 281 280 278 276
223 244 248 248 250 256 256 237 250 270 264 257 275 285 286 275 271 269 252 238 259 267 250 250 273 274 270 288 289 270 264 275 281 280 279 280 276 273
223 234 240 245 250 257 261 263 271 285 272 274 275 277 275 272 273 285 278 270 263 261 256 249 259 260 273 283 286 286 275 273 272 274 279 281 278 276
232 233 241 244 252 256 266 272 274 263 255 259 263 268 262 263 281 297 299 298 292 280 266 255 249 252 254 268 276 282 291 282 261 260 271 274 272 273
250 243 250 248 258 267 274 269 254 244 247 248 259 264 266 268 272 275 283 296 299 297 288 270 256 249 265 268 268 275 273 265 269 273 274 275 272 265
233 246 247 246 253 260 261 259 254 250 253 249 253 269 275 280 282 278 275 284 283 289 296 297 287 271 260 263 269 266 266 268 266 269 277 279 273 261
240 228 234 237 242 246 251 262 260 253 252 249 248 253 264 274 281 283 278 277 282 284 285 291 303 309 302 273 243 254 262 265 271 268 268 274 280 273
228 228 237 238 242 242 242 249 258 255 246 245 251 253 257 263 270 275 277 280 282 283 283 282 284 290 295 295 274 233 250 274 279 275 268 269 275 277
225 229 237 238 238 240 243 247 253 251 245 245 248 251 250 256 265 269 267 271 281 286 285 279 266 266 273 280 283 282 262 259 270 277 284 286 282 280
235 238 240 239 239 238 241 243 245 247 246 245 250 251 252 255 262 264 267 272 279 278 278 280 276 277 280 281 284 284 280 267 264 269 277 286 294 290
240 243 246 244 241 239 240 242 245 248 248 248 250 250 250 252 257 262 265 269 272 273 278 284 285 283 272 273 280 285 292 299 292 280 269 264 268 267
246 246 246 244 243 242 241 241 243 247 244 245 247 247 247 253 256 258 262 265 270 275 283 288 289 281 275 272 277 282 284 292 301 306 298 288 280 276
Height
1508 1509 1511 1512 1514 1515 1517 1518 1519 1519 1520 1521 1522 1523 1523 1523 1523 1522 1522 1521 1521 1520 1519 1519 1518 1517 1517 1516 1515 1514 1513 1512 1511 1510 1509 1508 1507 1506
1505 1506 1508 1509 1510 1511 1513 1514 1515 1516 1516 1517 1518 1519 1519 1519 1519 1518 1518 1517 1517 1516 1515 1514 1514 1513 1512 1511 1511 1510 1509 1508 1507 1506 1505 1504 1503 1502
1501 1503 1504 1505 1506 1508 1509 1510 1511 1512 1511 1512 1514 1515 1515 1515 1514 1514 1514 1513 1512 1512 1511 1510 1509 1509 1508 1507 1506 1506 1505 1504 1503 1502 1500 1499 1498 1497
1498 1500 1501 1502 1503 1504 1505 1506 1507 1507 1508 1507 1508 1509 1510 1510 1509 1509 1509 1508 1508 1507 1506 1505 1505 1504 1503 1502 1502 1501 1500 1499 1498 1497 1495 1494 1493 1492
1495 1496 1497 1498 1499 1500 1501 1502 1503 1503 1504 1504 1503 1504 1504 1505 1504 1504 1504 1504 1503 1502 1502 1501 1500 1499 1498 1497 1496 1496 1495 1493 1493 1491 1490 1489 1488 1486
1492 1493 1494 1495 1495 1496 1497 1498 1499 1499 1500 1500 1499 1499 1499 1500 1500 1499 1498 1498 1498 1497 1496 1495 1495 1494 1493 1492 1491 1490 1489 1488 1487 1486 1484 1483 1482 1481
1488 1490 1490 1491 1491 1492 1493 1493 1494 1494 1495 1495 1495 1495 1495 1495 1494 1494 1493 1492 1492 1492 1491 1490 1489 1488 1487 1486 1485 1484 1483 1482 1481 1480 1479 1477 1476 1475
1485 1486 1487 1487 1488 1488 1489 1489 1490 1490 1490 1491 1491 1490 1490 1490 1490 1489 1489 1487 1485 1486 1485 1484 1484 1482 1481 1480 1479 1478 1477 1476 1475 1474 1473 1471 1470 1469
1481 1482 1483 1483 1484 1485 1485 1485 1486 1486 1487 1487 1486 1486 1486 1486 1485 1484 1484 1483 1481 1481 1480 1477 1477 1476 1475 1474 1473 1472 1471 1470 1469 1468 1466 1465 1464 1463
1478 1479 1479 1480 1480 1481 1481 1481 1481 1482 1482 1482 1482 1482 1482 1481 1481 1480 1479 1478 1477 1476 1475 1472 1471 1470 1469 1468 1467 1466 1465 1464 1463 1461 1460 1459 1458 1456
1474 1475 1475 1476 1476 1477 1477 1477 1476 1477 1477 1477 1477 1477 1476 1476 1476 1475 1474 1473 1470 1469 1470 1468 1465 1463 1462 1461 1461 1460 1459 1458 1457 1455 1454 1452 1451 1450
1470 1471 1472 1472 1473 1473 1473 1473 1472 1472 1472 1472 1472 1472 1471 1470 1470 1470 1469 1468 1466 1464 1463 1463 1460 1459 1455 1453 1454 1454 1453 1452 1451 1449 1448 1446 1445 1444
1466 1466 1467 1468 1469 1469 1469 1469 1468 1468 1467 1467 1466 1466 1465 1465 1464 1464 1464 1463 1461 1459 1459 1458 1456 1454 1453 1448 1446 1447 1446 1445 1444 1442 1441 1440 1439 1438
1462 1463 1463 1464 1464 1465 1464 1464 1464 1463 1462 1462 1461 1460 1460 1459 1459 1459 1459 1458 1457 1455 1454 1453 1451 1450 1447 1444 1441 1439 1439 1439 1437 1436 1435 1433 1432 1431
1458 1459 1459 1460 1460 1460 1459 1459 1459 1458 1458 1457 1456 1455 1455 1454 1453 1453 1452 1452 1451 1450 1449 1447 1446 1444 1443 1440 1436 1434 1432 1431 1431 1430 1428 1426 1425 1424
1454 1454 1455 1455 1455 1455 1454 1454 1454 1454 1453 1452 1451 1451 1450 1449 1449 1448 1447 1446 1444 1443 1443 1442 1440 1439 1436 1434 1432 1429 1428 1426 1424 1424 1422 1420 1419 1417
1449 1449 1449 1449 1449 1449 1449 1449 1449 1449 1448 1447 1447 1446 1445 1444 1443 1443 1442 1440 1439 1436 1435 1435 1434 1432 1431 1429 1426 1424 1422 1420 1419 1418 1415 1413 1412 1411
1445 1444 1444 1444 1444 1444 1444 1444 1444 1443 1443 1443 1442 1441 1440 1440 1439 1438 1437 1436 1434 1432 1430 1429 1427 1425 1423 1421 1421 1418 1416 1415 1413 1412 1410 1407 1404 1404
1440 1439 1439 1439 1439 1439 1439 1439 1438 1438 1438 1437 1437 1436 1435 1435 1434 1433 1431 1430 1429 1427 1426 1424 1422 1420 1417 1414 1413 1414 1411 1409 1407 1405 1404 1402 1399 1397
1434 1434 1434 1434 1434 1434 1434 1434 1433 1433 1432 1432 1431 1431 1430 1430 1428 1427 1426 1425 1424 1422 1421 1419 1418 1416 1414 1412 1408 1406 1407 1405 1402 1400 1398 1396 1394 1392
1429 1429 1429 1429 1429 1429 1428 1428 1428 1427 1427 1426 1425 1425 1425 1424 1423 1422 1421 1420 1419 1417 1416 1414 1413 1412 1410 1407 1404 1400 1400 1400 1398 1395 1393 1390 1388 1385
1425 1425 1424 1424 1424 1423 1423 1423 1422 1422 1421 1420 1420 1419 1419 1418 1418 1417 1416 1415 1413 1412 1411 1409 1408 1406 1404 1402 1398 1396 1393 1393 1392 1390 1389 1387 1384 1380
1420 1419 1419 1419 1418 1418 1417 1417 1416 1416 1415 1415 1414 1414 1413 1413 1412 1411 1411 1410 1408 1407 1405 1403 1402 1400 1399 1397 1394 1391 1389 1387 1385 1383 1383 1382 1380 1378